Wetbulb
73.53 75.25 75.90 76.00 76.55 76.87 76.80 77.33 77.43 77.41 77.13 76.83 76.66 76.97 77.02 77.11 77.29 77.17 77.32 77.41 77.62 77.64 77.26 77.36 77.29 77.07 77.12 77.23 76.65 76.73 76.72 76.33 76.34 75.90 75.48 75.96 75.95 75.91 75.56 74.91 75.38 75.16 76.06
74.92 76.41 76.15 76.59 76.67 77.00 76.96 77.21 77.24 77.21 76.98 76.98 76.85 76.97 77.07 77.30 77.21 77.29 77.51 77.53 77.31 77.23 77.25 77.68 77.12 76.60 77.23 76.80 76.71 76.71 76.49 75.86 75.67 76.26 76.09 76.34 76.17 75.83 75.57 75.18 76.37 75.77 76.25
75.18 76.13 76.76 76.52 76.74 76.91 77.14 77.22 77.00 77.08 77.07 76.91 76.87 76.89 77.24 77.15 77.51 77.28 77.45 77.40 77.37 76.96 76.93 76.79 76.60 76.87 76.81 76.84 76.53 76.34 76.46 75.96 75.83 76.04 76.11 74.08 74.99 75.97 75.59 75.51 76.13 75.64 75.76
74.67 75.49 76.76 76.40 76.88 76.76 77.01 76.80 76.70 76.85 76.99 76.95 77.03 76.97 77.17 76.97 77.16 77.34 77.30 77.51 77.04 76.90 76.87 76.79 77.12 77.19 77.07 76.98 76.77 76.66 75.94 75.07 75.18 75.96 74.51 74.29 74.43 75.86 75.86 75.71 75.71 75.36 75.48
74.60 75.71 77.09 76.67 76.39 76.65 76.79 76.62 76.58 76.72 76.95 77.12 77.26 77.19 77.07 77.24 77.38 77.28 77.34 76.79 76.73 76.79 76.82 76.76 76.62 76.65 76.29 76.12 75.89 76.17 76.36 76.61 76.90 76.47 74.90 74.71 74.09 75.42 75.59 75.07 75.42 75.75 74.65
75.57 76.26 76.96 76.74 76.78 76.71 76.51 76.55 76.84 77.10 76.91 77.04 77.12 76.76 77.24 76.53 76.23 76.01 75.84 76.15 76.45 76.59 76.51 76.35 76.21 75.70 75.48 75.90 75.82 76.01 76.79 76.87 76.84 75.22 74.69 74.44 74.63 75.17 74.96 75.12 75.04 75.33 75.13
75.27 76.22 77.27 76.87 76.63 75.54 75.94 76.67 77.08 76.74 76.83 76.99 77.24 77.26 76.39 75.90 75.65 75.37 75.35 75.59 75.71 75.73 75.90 75.79 75.41 75.70 75.68 75.17 75.15 75.54 75.64 76.45 77.33 75.16 75.27 74.65 74.29 76.28 75.75 75.07 75.30 74.88 75.04
74.98 76.28 76.38 75.76 76.40 76.74 75.26 76.26 76.87 76.80 77.16 77.29 76.97 76.23 75.84 75.57 75.32 75.01 75.07 75.48 75.76 75.65 75.56 75.56 75.73 75.53 75.19 75.08 74.74 74.69 76.11 76.65 76.42 75.43 75.02 74.99 75.99 76.46 76.29 75.81 74.92 75.40 75.15
74.79 75.88 75.42 73.55 76.97 76.94 76.65 74.68 75.97 75.98 76.63 76.66 76.15 75.73 75.18 74.90 74.84 74.50 74.56 74.81 75.12 75.51 75.39 75.41 75.23 75.24 75.20 74.76 74.82 75.54 76.59 77.54 76.52 74.10 74.13 73.58 76.69 77.11 76.24 75.80 75.19 74.65 74.40
73.47 74.19 72.62 75.76 76.59 76.73 74.99 75.21 75.48 75.62 75.73 75.73 75.29 75.12 75.00 74.89 74.51 74.55 74.79 74.72 74.22 74.29 74.60 74.65 74.69 74.72 75.85 76.11 75.95 76.68 77.32 78.43 76.85 74.82 74.13 73.39 77.06 76.63 76.27 76.23 75.38 75.66 75.36
72.34 72.88 73.33 76.19 76.46 76.32 75.12 76.12 75.54 75.54 75.48 75.48 75.47 75.61 75.87 76.09 76.41 76.12 76.47 75.51 74.94 74.69 74.68 75.02 75.19 76.24 77.76 77.65 77.24 77.91 77.63 77.39 76.25 76.04 74.07 75.29 76.09 75.77 76.51 76.81 75.91 76.06 76.30
70.81 71.77 73.70 74.16 73.53 74.04 71.98 75.39 74.26 73.91 75.05 76.01 76.72 78.63 78.53 78.21 78.50 77.06 76.88 76.23 76.67 76.57 76.68 76.44 77.09 78.18 79.08 77.88 77.80 77.86 77.18 76.56 75.88 76.29 73.99 76.20 75.53 75.27 75.88 76.43 76.61 74.74 74.65
71.46 71.80 72.80 72.03 73.18 73.09 73.15 73.77 73.62 74.97 76.31 78.08 80.52 80.05 79.93 79.51 78.69 78.32 78.40 77.89 79.06 78.13 78.77 77.84 78.35 78.56 77.08 76.48 75.39 75.76 76.74 76.33 75.66 75.55 75.45 76.64 76.02 75.96 75.88 76.47 76.63 76.20 75.72
70.62 70.82 71.48 72.92 73.60 73.86 74.28 74.13 74.53 74.94 77.50 77.46 79.55 80.28 79.54 79.15 78.47 78.49 77.91 77.86 79.28 78.34 78.22 78.56 77.79 78.82 77.62 76.38 75.82 75.92 75.29 74.79 75.65 76.55 76.00 76.21 76.18 75.95 75.90 77.01 76.75 73.80 74.63
70.16 70.86 72.24 74.44 75.62 75.53 76.00 76.38 75.86 75.95 76.66 77.58 78.53 79.18 78.80 77.69 78.45 77.90 77.68 77.69 77.65 78.25 77.18 77.96 77.31 76.36 76.19 75.72 75.89 75.74 75.56 75.86 76.28 76.63 76.14 76.75 76.37 76.27 76.06 76.73 76.86 75.22 74.40
70.42 71.04 73.10 74.63 75.94 76.11 77.28 77.16 76.29 76.48 77.90 77.84 77.59 77.87 78.82 78.83 79.57 78.04 77.43 77.20 77.60 77.39 77.55 77.82 77.82 76.85 76.43 76.41 76.33 76.62 76.49 76.49 76.27 77.03 76.62 76.97 76.97 76.78 76.54 76.28 77.32 77.59 77.26
70.44 71.55 73.10 74.26 75.37 76.45 77.37 77.16 76.75 76.24 76.05 76.30 76.58 78.34 78.19 79.10 79.31 79.76 76.90 76.20 76.42 78.05 78.90 78.46 77.84 77.14 76.20 75.68 76.33 76.30 76.44 76.52 75.51 76.92 76.79 77.33 77.19 76.66 76.46 76.73 77.16 77.26 78.33
71.24 72.34 73.89 73.11 73.90 75.26 76.24 76.35 75.41 75.78 76.35 75.49 75.64 76.62 78.18 78.15 78.52 79.17 75.69 75.17 78.56 76.95 76.15 76.00 75.36 74.67 74.06 73.89 73.10 72.96 73.99 75.17 75.67 75.84 76.20 76.52 76.60 77.57 77.00 77.63 77.66 77.53 77.91
72.05 73.10 73.87 73.92 73.26 74.53 76.94 76.10 76.08 76.97 76.32 75.54 75.04 74.98 78.79 77.66 76.92 77.89 75.74 75.89 79.17 76.59 75.27 75.25 74.71 75.82 74.34 73.90 72.51 72.81 73.00 73.22 74.22 73.82 75.10 75.37 75.68 76.20 77.22 76.73 77.23 77.06 77.61
72.69 73.43 74.44 74.40 75.18 75.86 76.10 76.67 75.55 74.44 74.95 74.97 74.56 74.87 77.56 76.79 77.63 77.39 75.60 76.54 77.24 75.63 74.67 77.27 78.19 76.09 75.40 73.92 73.29 73.31 73.81 73.67 73.40 73.21 74.19 74.29 73.46 75.74 75.04 78.23 77.49 77.20 77.20
73.39 73.33 74.08 74.74 77.96 76.06 74.79 73.86 73.55 73.06 73.32 73.26 74.13 75.88 77.78 77.63 77.35 78.33 76.46 75.60 76.70 76.72 77.81 77.77 76.92 77.68 75.20 75.77 73.89 73.29 73.13 73.33 73.32 73.04 73.65 73.78 73.46 73.72 75.13 75.11 76.09 75.76 77.13
73.70 74.70 74.42 74.87 76.61 76.42 75.27 75.52 75.09 74.44 73.89 73.48 74.61 79.54 78.52 78.63 78.87 78.61 78.84 77.48 77.76 77.66 77.07 77.51 77.29 74.50 74.10 75.31 71.68 72.66 70.05 71.06 72.01 73.61 74.20 73.85 76.35 76.00 75.60 75.83 77.10 78.05 77.87
74.17 74.91 75.53 76.56 77.60 77.91 78.34 76.24 76.24 76.39 76.27 75.08 74.67 75.86 77.09 78.39 78.54 78.54 78.38 77.96 77.95 79.03 79.36 75.97 75.97 74.63 71.96 73.02 75.12 73.59 69.11 68.97 70.69 73.06 74.57 70.48 75.13 71.00 71.25 71.09 71.64 73.81 77.85
74.58 75.47 76.50 77.58 78.38 78.14 79.50 77.65 78.62 75.01 73.36 73.42 74.38 74.77 77.43 77.68 77.10 77.67 77.63 77.63 77.31 78.52 76.97 77.38 77.85 75.31 72.64 70.31 72.26 72.92 74.30 73.75 67.48 65.25 69.31 69.90 69.27 68.78 69.90 70.94 68.34 72.71 74.98
74.37 74.30 75.89 78.94 78.77 78.64 78.63 79.45 76.78 77.10 75.43 76.30 76.41 76.75 77.60 76.56 75.65 75.25 75.66 75.40 74.81 74.67 74.60 74.05 73.71 73.42 74.54 72.50 72.41 70.75 71.94 68.45 71.27 66.63 62.45 63.78 65.67 66.06 67.70 66.91 70.76 69.28 71.59
73.89 74.58 75.11 78.84 80.39 78.91 78.47 77.78 77.83 75.80 74.91 73.74 74.11 76.41 73.69 73.63 73.04 72.19 72.03 71.86 71.06 71.03 70.64 70.31 70.94 71.07 70.10 69.50 68.79 67.59 65.47 64.36 63.98 62.40 61.28 63.66 62.62 63.96 64.81 66.61 67.48 72.07 70.00
MSLP
1014.03 1014.61 1015.19 1015.33 1015.40 1015.44 1015.42 1015.44 1015.51 1015.62 1015.76 1015.78 1015.81 1015.84 1015.87 1015.97 1015.97 1016.07 1016.06 1016.22 1016.16 1016.34 1016.45 1016.48 1016.47 1016.57 1016.68 1016.78 1016.83 1016.85 1016.89 1017.03 1016.94 1016.88 1016.88 1017.05 1017.18 1017.14 1017.30 1017.32 1017.09 1017.07 1017.86
1013.34 1014.18 1015.32 1015.45 1015.58 1015.62 1015.68 1015.71 1015.82 1015.88 1015.99 1016.02 1016.12 1016.16 1016.19 1016.22 1016.36 1016.39 1016.36 1016.37 1016.53 1016.64 1016.71 1016.69 1016.77 1016.90 1017.03 1017.12 1017.17 1017.19 1017.19 1017.21 1017.19 1017.00 1017.04 1017.14 1017.49 1017.55 1017.57 1017.64 1017.26 1017.85 1018.05
1012.92 1014.43 1015.00 1015.63 1015.76 1015.80 1015.86 1015.93 1016.11 1016.14 1016.28 1016.45 1016.52 1016.55 1016.44 1016.50 1016.61 1016.56 1016.55 1016.64 1016.75 1016.84 1016.92 1017.01 1017.14 1017.27 1017.29 1017.35 1017.38 1017.40 1017.44 1017.37 1017.15 1016.73 1016.92 1016.04 1017.20 1017.87 1017.88 1017.88 1018.02 1018.27 1018.44
1013.20 1014.08 1014.77 1015.87 1015.96 1016.11 1016.18 1016.28 1016.38 1016.41 1016.55 1016.64 1016.78 1016.77 1016.76 1016.88 1016.80 1016.81 1016.90 1016.99 1017.08 1017.15 1017.25 1017.39 1017.48 1017.56 1017.66 1017.58 1017.51 1017.64 1017.57 1017.33 1016.96 1016.95 1016.85 1016.37 1016.90 1018.07 1018.15 1018.22 1018.28 1018.50 1018.75
1013.27 1014.17 1015.49 1016.07 1016.27 1016.38 1016.48 1016.61 1016.74 1016.79 1016.76 1016.91 1016.88 1016.98 1016.98 1016.93 1016.99 1017.11 1017.20 1017.26 1017.36 1017.48 1017.60 1017.70 1017.79 1017.81 1017.74 1017.72 1017.71 1017.73 1017.57 1017.41 1017.10 1016.67 1015.86 1016.08 1016.73 1018.07 1018.24 1018.41 1018.53 1018.59 1018.71
1013.74 1014.43 1015.80 1016.18 1016.33 1016.55 1016.70 1016.78 1016.82 1016.92 1016.97 1017.01 1017.06 1017.08 1017.08 1017.11 1017.17 1017.33 1017.41 1017.52 1017.58 1017.68 1017.77 1017.83 1017.91 1017.98 1017.86 1017.78 1017.71 1017.69 1017.56 1017.40 1017.24 1016.18 1016.44 1016.63 1016.89 1018.14 1018.18 1018.33 1018.48 1018.65 1018.77
1013.78 1014.30 1015.53 1016.29 1016.47 1016.63 1016.81 1016.96 1016.99 1017.11 1017.17 1017.21 1017.23 1017.22 1017.27 1017.35 1017.40 1017.44 1017.56 1017.72 1017.77 1017.82 1017.89 1017.92 1017.99 1017.99 1017.88 1017.88 1017.76 1017.62 1017.40 1017.23 1016.65 1016.24 1016.18 1016.40 1017.62 1018.08 1018.19 1018.27 1018.37 1018.56 1018.70
1013.03 1013.79 1015.22 1016.39 1016.53 1016.68 1016.89 1017.08 1017.18 1017.25 1017.27 1017.34 1017.31 1017.42 1017.47 1017.60 1017.63 1017.63 1017.69 1017.75 1017.79 1017.88 1017.91 1017.96 1017.99 1017.96 1017.86 1017.86 1017.83 1017.70 1017.25 1016.86 1015.88 1016.13 1016.16 1016.61 1017.79 1017.89 1018.01 1018.28 1018.45 1018.47 1018.51
1012.44 1013.39 1014.48 1015.73 1016.26 1016.60 1016.92 1017.11 1017.23 1017.35 1017.50 1017.53 1017.58 1017.66 1017.68 1017.72 1017.72 1017.72 1017.77 1017.76 1017.86 1017.91 1017.96 1018.01 1018.01 1017.93 1017.78 1017.68 1017.67 1017.54 1016.98 1016.57 1016.21 1015.46 1015.68 1016.67 1017.81 1017.92 1018.03 1018.13 1018.14 1018.24 1018.39
1012.58 1012.88 1014.06 1014.98 1014.85 1015.45 1016.44 1017.14 1017.33 1017.48 1017.58 1017.68 1017.73 1017.73 1017.67 1017.67 1017.70 1017.73 1017.87 1017.89 1017.98 1018.00 1017.98 1017.95 1017.94 1017.84 1017.61 1017.48 1017.40 1017.18 1016.74 1016.31 1015.71 1015.21 1015.49 1016.61 1017.62 1017.80 1017.88 1018.17 1018.27 1018.31 1018.22
1012.97 1013.43 1013.75 1014.58 1014.95 1015.30 1015.96 1016.89 1017.28 1017.43 1017.55 1017.67 1017.63 1017.50 1017.40 1016.44 1016.92 1017.16 1017.55 1017.74 1017.92 1017.93 1017.86 1017.80 1017.73 1017.50 1017.22 1017.12 1016.98 1016.59 1016.37 1015.22 1014.08 1014.55 1015.56 1017.16 1017.55 1017.73 1017.83 1018.06 1018.10 1018.20 1018.18
1012.85 1013.25 1013.45 1013.48 1014.72 1014.94 1015.18 1016.20 1016.16 1016.45 1016.31 1016.55 1016.62 1016.51 1016.32 1015.72 1016.00 1016.22 1016.96 1017.47 1017.63 1017.62 1017.50 1017.46 1017.29 1016.94 1016.62 1015.55 1016.09 1015.98 1015.27 1014.28 1014.32 1014.51 1015.81 1016.98 1017.48 1017.62 1017.85 1018.01 1018.04 1018.23 1018.29
1012.52 1013.00 1013.20 1013.68 1014.16 1014.17 1015.11 1015.27 1015.36 1015.34 1016.04 1016.52 1016.90 1016.63 1016.01 1015.85 1015.93 1015.71 1016.05 1016.47 1016.44 1016.82 1016.11 1016.81 1016.53 1016.21 1015.63 1015.73 1015.37 1014.85 1015.04 1014.26 1014.00 1014.39 1016.03 1016.87 1017.34 1017.54 1017.64 1017.83 1017.89 1018.05 1018.18
1012.46 1012.93 1013.17 1013.89 1014.23 1014.43 1014.84 1014.58 1014.70 1014.95 1015.77 1016.03 1016.21 1016.66 1016.36 1015.96 1015.81 1015.46 1014.85 1015.50 1015.64 1015.09 1015.77 1015.97 1015.12 1015.88 1015.88 1016.13 1015.62 1015.43 1014.81 1014.50 1014.45 1014.21 1015.80 1016.52 1017.03 1017.38 1017.44 1017.58 1017.79 1017.93 1017.99
1012.60 1013.09 1013.59 1014.62 1014.73 1014.89 1015.01 1015.03 1014.98 1015.22 1015.17 1015.74 1015.98 1016.70 1016.11 1015.45 1015.91 1015.32 1015.71 1015.19 1015.42 1015.50 1015.45 1015.54 1015.65 1016.08 1015.96 1015.40 1015.30 1015.20 1014.80 1014.75 1014.51 1014.15 1015.02 1015.95 1016.38 1016.82 1017.03 1017.06 1017.27 1017.34 1017.64
1012.65 1013.21 1014.09 1014.87 1015.27 1015.51 1015.49 1015.83 1015.32 1014.92 1015.62 1015.68 1015.86 1016.36 1016.63 1016.05 1016.29 1015.54 1015.46 1015.11 1015.24 1015.54 1015.44 1015.60 1016.24 1015.97 1015.71 1015.45 1015.02 1015.06 1015.01 1014.48 1014.68 1014.51 1014.35 1015.42 1015.98 1016.31 1016.54 1016.65 1016.75 1016.73 1016.86
1012.58 1013.11 1014.23 1014.81 1015.30 1015.87 1016.00 1016.22 1015.70 1015.53 1015.11 1015.59 1015.82 1016.66 1016.77 1016.66 1016.51 1016.43 1015.33 1015.51 1015.15 1015.69 1016.14 1015.77 1015.93 1015.41 1015.34 1014.70 1014.75 1014.76 1014.74 1014.35 1014.21 1014.29 1014.38 1014.02 1015.09 1015.68 1015.88 1016.02 1016.18 1016.32 1016.31
1012.35 1013.10 1014.02 1014.19 1014.93 1015.60 1015.93 1016.10 1015.58 1015.29 1015.03 1015.41 1015.71 1015.96 1016.49 1016.65 1016.72 1016.50 1015.62 1015.29 1015.58 1015.94 1015.26 1015.24 1015.36 1015.21 1015.05 1014.71 1014.58 1014.32 1013.86 1013.84 1013.63 1013.98 1013.85 1013.67 1013.45 1014.19 1015.32 1015.46 1015.50 1015.70 1015.71
1012.29 1013.20 1013.78 1014.17 1014.57 1015.21 1015.76 1015.77 1015.87 1015.69 1015.89 1015.19 1015.30 1015.42 1016.07 1016.39 1016.53 1016.60 1015.83 1015.31 1015.98 1016.00 1015.41 1015.25 1015.28 1015.40 1015.11 1015.07 1014.50 1013.73 1013.42 1013.34 1013.22 1012.74 1013.35 1013.70 1013.48 1013.64 1013.66 1014.83 1014.92 1014.94 1015.12
1012.34 1013.16 1013.86 1014.27 1014.44 1015.05 1015.42 1015.85 1015.49 1015.36 1015.50 1015.27 1014.98 1014.88 1015.53 1015.93 1016.38 1016.57 1015.97 1015.77 1016.28 1015.96 1015.46 1015.70 1016.15 1016.13 1016.01 1015.21 1014.17 1014.17 1013.60 1012.89 1012.73 1012.66 1012.88 1012.98 1012.41 1012.74 1012.92 1013.39 1014.31 1014.37 1014.64
1012.07 1012.95 1013.64 1014.19 1014.65 1015.05 1015.32 1015.08 1014.95 1014.74 1014.83 1014.89 1014.68 1014.88 1015.55 1016.02 1016.01 1016.20 1016.09 1015.58 1015.59 1015.85 1015.97 1016.42 1016.70 1016.34 1015.85 1015.01 1014.77 1014.18 1013.33 1012.83 1012.17 1012.03 1012.19 1012.09 1012.13 1012.23 1012.52 1013.02 1013.19 1012.74 1013.60
1011.43 1012.38 1013.32 1013.83 1014.38 1014.93 1014.95 1014.79 1014.42 1014.31 1014.07 1014.17 1014.25 1014.99 1015.64 1016.13 1016.20 1016.25 1016.21 1016.22 1016.33 1016.41 1016.82 1017.18 1017.12 1017.27 1016.90 1016.13 1016.27 1015.07 1013.72 1012.45 1013.67 1013.93 1012.26 1012.58 1013.18 1012.78 1012.91 1012.83 1013.02 1013.16 1013.12
1010.71 1011.54 1012.48 1013.27 1013.79 1014.44 1014.62 1014.70 1014.83 1015.02 1014.73 1014.56 1014.63 1015.05 1015.43 1016.28 1016.56 1016.62 1016.72 1017.00 1017.04 1017.06 1017.45 1017.55 1017.43 1017.57 1017.51 1017.24 1017.09 1016.61 1015.43 1014.21 1014.57 1013.66 1013.07 1013.95 1013.48 1013.72 1013.68 1013.51 1013.26 1013.50 1013.36
1009.80 1010.60 1011.60 1012.68 1013.49 1014.03 1014.52 1014.46 1014.65 1014.62 1014.56 1014.61 1014.74 1014.69 1015.41 1015.99 1016.68 1016.92 1016.92 1017.04 1017.22 1017.24 1017.60 1017.68 1017.68 1017.64 1017.90 1017.80 1017.42 1016.72 1016.79 1016.00 1015.38 1014.64 1013.84 1013.31 1013.49 1013.49 1013.44 1013.25 1013.33 1012.91 1013.04
1009.05 1009.80 1010.59 1011.75 1012.94 1013.67 1014.21 1014.49 1014.39 1014.84 1014.81 1014.86 1014.83 1015.85 1015.55 1016.43 1017.04 1017.20 1017.34 1017.69 1017.61 1017.29 1017.91 1018.12 1018.40 1018.30 1017.72 1017.35 1016.76 1016.68 1016.45 1016.14 1015.69 1015.77 1015.17 1014.11 1014.09 1013.84 1013.33 1013.38 1013.06 1013.12 1012.99
1008.39 1009.04 1009.74 1010.93 1012.26 1013.43 1014.14 1014.65 1015.34 1015.67 1016.22 1016.13 1016.35 1016.34 1016.54 1017.03 1017.52 1017.88 1018.04 1018.37 1018.68 1018.67 1018.65 1018.54 1018.92 1018.89 1018.91 1018.78 1018.17 1017.55 1017.04 1016.77 1016.47 1016.57 1016.09 1015.52 1014.90 1014.44 1014.00 1013.42 1013.27 1013.05 1013.03
Wind_Speed
7 11 6 5 6 6 8 9 9 9 9 9 9 9 11 11 11 11 12 13 13 14 14 15 15 13 13 14 13 13 12 12 11 11 12 13 11 8 8 5 6 16 13
13 13 8 6 7 8 8 9 9 9 9 10 10 10 11 12 12 12 13 14 14 13 14 15 15 13 13 14 14 12 11 9 8 10 12 15 12 10 10 9 13 13 12
17 13 12 8 7 8 7 9 8 10 9 10 10 10 10 12 12 11 13 14 13 13 13 13 14 13 13 13 12 12 11 7 7 10 11 7 13 10 11 12 14 11 10
14 14 14 8 8 8 8 8 8 9 10 10 11 10 11 11 11 12 12 13 13 12 12 12 12 12 11 10 10 10 9 5 7 9 11 7 13 9 10 11 12 10 10
14 15 13 10 9 9 8 8 9 10 9 10 11 11 10 11 12 11 12 11 11 11 11 10 9 9 8 7 6 6 6 7 7 8 4 10 12 11 10 10 12 11 8
19 15 13 10 10 9 9 8 10 11 10 10 10 10 10 10 10 10 10 9 9 9 8 7 6 6 5 4 4 3 6 9 10 6 5 8 13 12 10 9 10 11 10
12 15 14 11 10 10 9 10 9 10 9 9 10 9 9 9 9 8 8 8 8 7 7 6 5 4 2 2 2 1 4 7 12 7 2 11 11 12 11 11 11 9 10
17 18 14 10 10 9 9 9 8 9 9 8 8 8 8 7 7 7 7 7 7 6 6 6 4 3 2 1 1 3 8 10 5 6 8 9 12 11 11 11 10 9 10
10 17 12 12 11 9 9 9 8 7 7 7 6 6 5 5 6 5 6 6 6 5 5 4 3 3 4 4 4 6 10 12 12 6 10 8 11 11 11 11 12 12 10
9 11 10 11 12 14 12 9 8 7 6 6 6 5 5 6 5 6 6 5 4 4 4 4 4 5 7 7 6 9 12 14 10 8 7 8 13 12 12 11 11 12 13
7 9 10 14 7 7 11 10 10 8 7 7 7 8 10 9 10 12 10 8 4 4 4 5 5 9 11 12 11 13 12 7 4 3 9 15 12 12 11 11 11 12 13
11 10 8 12 11 11 11 11 10 11 10 7 6 7 10 6 5 8 8 9 7 8 10 11 11 13 15 8 9 13 8 2 2 2 8 15 11 11 10 10 10 11 12
10 9 9 11 11 11 10 8 6 5 6 6 5 2 5 2 6 9 8 7 9 13 9 11 11 10 3 4 4 5 3 4 3 3 11 13 11 11 11 12 12 12 13
10 10 11 11 9 11 7 7 6 6 6 3 8 4 3 7 3 5 4 4 5 4 5 2 4 7 5 3 4 4 7 5 3 1 8 13 10 11 12 11 10 11 10
10 10 12 10 6 7 9 7 5 9 6 8 6 4 3 4 2 5 4 4 4 1 4 1 3 3 1 5 4 3 5 3 8 4 7 16 14 13 14 14 13 15 13
11 11 13 11 8 10 4 6 4 5 8 3 2 6 2 5 2 2 4 1 1 3 5 4 5 4 4 5 2 3 5 4 5 3 4 9 14 14 14 15 16 17 17
11 12 13 12 11 9 8 7 7 7 7 5 3 3 0 5 2 6 1 6 3 4 5 4 3 5 6 5 6 6 6 9 5 1 6 6 11 16 16 17 16 17 18
12 12 13 11 13 10 8 5 6 6 2 5 4 4 4 3 2 4 5 5 7 5 5 4 5 4 8 6 7 6 6 6 7 5 8 5 6 10 14 16 17 16 18
11 12 12 9 11 11 8 7 6 4 5 5 6 5 8 4 5 5 7 5 6 7 8 5 7 8 7 8 9 9 6 6 8 8 4 7 9 5 9 16 18 17 18
13 12 11 10 7 8 7 5 6 7 8 9 7 6 8 5 5 5 8 4 4 9 8 8 7 7 8 10 8 10 11 7 7 5 6 8 11 5 9 12 10 10 19
15 13 14 12 10 7 8 7 8 7 8 9 8 7 2 5 7 5 7 8 7 6 7 6 8 9 10 8 5 10 9 11 11 5 7 6 5 6 6 6 4 7 10
16 15 14 14 12 11 8 7 6 6 7 9 6 5 2 7 6 7 6 7 10 8 8 8 6 6 8 7 5 9 10 7 10 20 4 4 11 8 9 8 9 6 6
15 16 16 15 14 13 12 8 7 7 7 6 5 6 6 4 3 4 3 4 4 5 5 6 7 5 4 9 9 5 7 5 9 1 9 9 7 5 6 8 6 7 7
17 16 17 16 14 13 12 11 11 8 10 9 8 8 7 3 2 2 2 3 3 4 4 5 3 2 3 5 4 4 7 4 7 5 6 1 3 6 6 5 8 5 6
16 16 17 15 14 13 13 13 9 11 8 5 3 7 6 5 4 3 4 5 6 6 7 7 9 9 7 7 3 6 5 6 6 5 8 8 7 7 4 6 5 8 8
16 15 15 15 14 14 13 13 10 10 7 8 7 2 6 5 5 7 8 7 9 8 8 8 8 9 9 7 8 5 5 6 8 7 8 9 10 9 9 6 5 4 6
Wind_Direction
135 117 108 113 109 102 96 93 94 96 99 104 104 105 97 100 99 102 102 95 99 98 99 106 102 99 98 90 83 86 88 91 99 100 101 91 82 77 69 40 178 103 104
124 112 115 114 117 114 106 100 106 107 106 104 109 103 107 100 101 101 98 101 97 92 99 98 97 93 93 97 98 96 99 112 116 129 128 106 91 84 78 67 75 98 108
126 120 126 121 122 109 108 103 114 113 104 106 109 100 104 101 99 102 97 96 97 102 101 103 107 105 103 101 97 97 103 126 171 179 169 114 96 88 89 87 86 100 108
112 135 118 125 120 113 107 102 99 102 101 106 102 104 97 102 106 102 97 93 96 95 102 106 109 107 107 105 110 115 125 162 227 221 203 214 101 100 99 100 108 113 122
106 114 107 119 125 116 113 107 99 101 106 109 108 108 103 98 103 98 98 103 105 105 106 112 118 119 112 111 121 138 177 204 252 272 49 95 115 121 121 127 132 118 121
89 100 118 122 113 107 102 104 114 106 108 112 114 106 112 106 103 105 106 110 110 113 118 125 123 115 124 125 126 160 231 235 239 150 123 74 95 128 132 120 114 118 119
117 119 121 119 121 117 117 111 108 114 113 118 119 122 110 110 111 112 113 115 122 133 138 139 139 139 145 120 106 338 260 254 256 102 118 97 118 144 140 136 134 134 128
148 126 128 127 127 127 123 128 117 117 118 115 112 113 110 115 113 116 120 129 138 151 162 169 167 167 200 233 258 299 291 284 249 141 147 117 139 154 152 147 144 145 145
138 112 147 134 137 136 123 130 121 118 117 115 114 111 119 126 128 135 141 149 152 169 182 193 201 230 253 258 266 273 275 273 274 127 134 135 156 163 163 170 164 160 161
141 116 114 148 165 136 145 131 126 123 130 132 130 146 171 163 160 174 172 159 163 186 206 229 248 261 259 257 247 249 260 275 265 136 90 108 158 171 178 179 181 174 174
135 130 151 131 176 109 129 130 145 146 155 160 169 202 207 186 170 163 103 139 178 207 226 235 249 258 255 246 228 229 239 247 193 183 99 136 161 184 187 188 197 191 189
157 159 159 129 133 169 119 161 139 150 167 160 143 223 233 56 51 69 132 167 198 214 222 220 226 240 256 211 194 223 238 156 179 70 108 142 169 194 199 198 210 202 202
152 141 167 126 169 146 139 149 158 151 148 135 121 275 36 304 168 203 152 177 196 212 212 210 208 222 88 1 340 26 326 279 10 104 122 148 174 199 215 217 219 224 213
147 154 143 141 157 123 139 173 133 127 137 195 94 196 163 216 182 313 27 81 233 123 44 177 329 33 310 320 324 51 293 336 40 52 135 157 184 209 222 230 225 219 217
150 149 125 135 121 123 202 92 196 113 186 116 162 103 354 21 8 242 86 334 352 260 125 209 58 28 36 228 307 301 14 329 328 312 141 172 189 200 222 231 230 240 235
152 156 129 149 143 147 117 149 204 170 92 233 149 95 123 324 5 33 190 204 86 329 22 13 16 332 326 292 55 311 304 317 276 317 22 163 190 205 217 230 237 238 242
161 162 144 156 166 148 135 181 224 142 196 147 169 176 45 310 71 321 312 280 350 53 249 206 252 217 241 271 231 244 251 237 273 334 271 163 182 203 209 224 236 240 243
172 162 157 177 160 168 170 185 213 210 258 204 197 194 181 215 274 285 255 278 43 295 289 269 275 288 315 333 296 287 280 270 253 254 227 256 252 181 204 218 228 239 244
171 167 169 189 170 160 154 208 228 253 253 245 225 211 154 245 264 260 287 306 15 307 293 291 307 332 324 310 293 283 279 272 260 258 357 269 266 248 184 194 217 226 236
170 172 188 180 199 168 178 210 267 228 218 244 239 246 142 228 203 274 279 295 313 288 301 9 360 324 301 276 320 330 272 264 278 274 215 243 252 182 277 175 194 220 233
172 180 183 196 179 190 194 221 212 226 221 235 236 239 358 250 268 216 270 273 232 251 349 346 315 310 305 315 326 297 326 278 239 231 212 253 297 252 7 270 263 288 193
182 179 190 199 196 198 208 232 251 244 228 215 231 89 124 310 300 295 295 317 344 346 321 311 302 320 316 324 355 324 286 306 16 325 23 320 14 2 333 332 349 301 282
196 184 191 198 198 203 228 209 215 256 277 276 238 232 194 205 264 261 295 276 300 313 324 303 311 314 313 326 321 292 311 342 348 329 30 350 24 347 307 317 26 315 282
202 198 197 197 204 202 213 236 212 226 224 223 239 235 132 107 249 237 342 5 9 339 356 349 1 310 215 249 281 288 271 314 325 326 335 209 349 304 25 344 328 307 307
211 200 198 187 203 220 204 239 227 226 259 302 285 159 102 88 78 82 68 54 47 38 41 28 5 360 317 320 315 352 352 295 218 333 315 343 327 350 358 317 341 347 308
211 213 205 179 184 201 217 229 260 314 329 329 328 287 114 136 131 74 73 55 43 32 41 33 1 35 5 355 341 336 346 343 356 341 322 322 329 322 322 295 328 328 315